Xtreme Racing in GPRO
 
HomeHome  PortalPortal  CalendarCalendar  FAQFAQ  SearchSearch  MemberlistMemberlist  UsergroupsUsergroups  RegisterRegister  Log inLog in  

Share | 
 

 Race 11 Hungaroring

Go down 
AuthorMessage
PaulC



Posts : 94
Points : 187
Reputation : 0
Join date : 2010-08-01
Age : 50
Location : New Hampshire

PostSubject: Race 11 Hungaroring   Fri Mar 25, 2011 3:19 pm

Race forecast
Start - 0h30m 0h30m - 1h
Temp: 42°-45°
Humidity: 88%-97%
Rain probability: 0%-1% Temp: 44°-47°
Humidity: 86%-95%
Rain probability: 0%
1h - 1h30m 1h30m - 2h
Temp: 46°-50°
Humidity: 86%-94%
Rain probability: 20%-30% Temp: 44°-49°
Humidity: 88%-97%
Rain probability: 0%
Race settings and strategy
Risks used
Overtake Defend Clear Malfunct
0 0 0 0

Setup used
FWing RWing Eng Bra Gear Susp
999 999 412 746 60 388

Start fuel: 85 liters
Pit Pitstop reason Tyres condition
Fuel left Refilled to Pit time
Stop 1
(Lap 18) The tyres could not do any more laps 3% 25% 90 liters 27.643s
Stop 2
(Lap 32) The tyres could not do any more laps 3% 31% No refill 30.172s
Stop 3
(Lap 46) The tyres could not do any more laps 2% 13% 50 liters 26.422s
Stop 4
(Lap 60) The tyres could not do any more laps 1% 9% 50 liters 25.378s
Stop 5
(Lap 73) The tyres could not do any more laps 7% 11% 50 liters 28.259s

Tyres condition after finish: 72%

Fuel left in the car after finish: 40 liters

Lap information
Lap Lap time Pos Tyres Weather Temp Hum Events
0 - 7 Rain Rain 43° 99% -
1 1:44.990 2 Rain Rain 43° 99% -
2 1:37.821 2 Rain Rain 43° 99% -
3 1:37.358 2 Rain Rain 43° 99% -
4 1:37.426 2 Rain Rain 43° 99% -
5 1:37.058 2 Rain Rain 43° 99% -
6 1:26.243 2 Rain Very Cloudy 43° 96% -
7 1:26.359 2 Rain Very Cloudy 43° 96% -
8 1:26.243 1 Rain Very Cloudy 43° 95% -
9 1:26.124 1 Rain Very Cloudy 43° 95% -
10 1:26.242 1 Rain Very Cloudy 43° 94% -
11 1:26.307 1 Rain Very Cloudy 43° 93% -
12 1:26.140 1 Rain Very Cloudy 43° 93% -
13 1:25.973 3 Rain Very Cloudy 43° 93% -
14 1:26.080 3 Rain Very Cloudy 42° 93% -
15 1:25.963 3 Rain Very Cloudy 42° 93% -
16 1:26.200 4 Rain Very Cloudy 42° 93% -
17 1:27.534 7 Rain Very Cloudy 42° 93% -
18 1:37.299 14 Rain Very Cloudy 42° 93% Pit
19 2:03.194 31 Rain Very Cloudy 42° 93% -
20 1:26.927 31 Rain Very Cloudy 42° 93% -
21 1:26.497 31 Rain Very Cloudy 42° 93% -
22 1:26.379 31 Rain Very Cloudy 42° 93% -
23 1:26.336 32 Rain Very Cloudy 42° 93% -
24 1:26.374 31 Rain Very Cloudy 42° 93% -
25 1:26.469 31 Rain Very Cloudy 42° 93% -
26 1:26.301 31 Rain Very Cloudy 42° 93% -
27 1:26.379 32 Rain Very Cloudy 42° 93% -
28 1:26.192 31 Rain Cloudy 43° 93% -
29 1:26.106 31 Rain Cloudy 44° 93% -
30 1:26.346 31 Rain Cloudy 45° 92% -
31 1:27.500 32 Rain Cloudy 45° 92% -
32 1:37.376 33 Rain Cloudy 45° 91% Pit
33 2:04.955 33 Rain Cloudy 45° 91% -
34 1:26.391 33 Rain Cloudy 45° 90% -
35 1:25.968 33 Rain Partially Cloudy 45° 90% -
36 1:25.929 33 Rain Partially Cloudy 45° 90% -
37 1:25.853 33 Rain Partially Cloudy 45° 90% -
38 1:25.648 33 Rain Partially Cloudy 45° 90% -
39 1:25.651 33 Rain Partially Cloudy 45° 90% -
40 1:25.763 33 Rain Partially Cloudy 45° 90% -
41 1:25.790 33 Rain Partially Cloudy 45° 90% -
42 1:25.620 33 Rain Partially Cloudy 45° 90% -
43 1:25.613 33 Rain Partially Cloudy 45° 90% -
44 1:26.217 33 Rain Partially Cloudy 45° 90% -
45 1:27.152 32 Rain Partially Cloudy 45° 90% -
46 1:37.350 33 Rain Partially Cloudy 45° 90% Pit
47 2:01.301 33 Rain Partially Cloudy 45° 90% -
48 1:26.206 33 Rain Partially Cloudy 45° 90% -
49 1:25.878 33 Rain Partially Cloudy 45° 90% -
50 1:25.636 33 Rain Partially Cloudy 45° 90% -
51 1:25.647 33 Rain Partially Cloudy 46° 90% -
52 1:25.781 33 Rain Partially Cloudy 46° 90% -
53 1:25.588 33 Rain Partially Cloudy 46° 90% -
54 1:25.465 33 Rain Partially Cloudy 47° 90% -
55 1:25.620 33 Rain Partially Cloudy 47° 90% -
56 1:25.445 33 Rain Partially Cloudy 47° 90% -
57 1:25.219 33 Rain Partially Cloudy 47° 90% -
58 1:26.057 33 Rain Partially Cloudy 46° 90% -
59 1:27.204 33 Rain Partially Cloudy 46° 89% -
60 1:37.080 33 Rain Partially Cloudy 46° 89% Pit
61 2:00.056 33 Rain Partially Cloudy 46° 89% -
62 1:26.175 33 Rain Partially Cloudy 46° 89% -
63 1:25.564 33 Rain Partially Cloudy 47° 89% -
64 1:25.366 33 Rain Partially Cloudy 48° 89% -
65 1:25.623 33 Rain Partially Cloudy 48° 89% -
66 1:25.567 33 Rain Partially Cloudy 49° 89% -
67 1:25.356 33 Rain Partially Cloudy 49° 89% -
68 1:25.203 33 Rain Partially Cloudy 49° 89% -
69 1:25.360 33 Rain Partially Cloudy 49° 89% -
70 1:25.334 33 Rain Partially Cloudy 49° 89% -
71 1:25.307 33 Rain Partially Cloudy 48° 89% -
72 1:26.008 33 Rain Partially Cloudy 47° 89% -
73 1:35.469 33 Rain Partially Cloudy 46° 89% Pit
74 2:02.840 33 Rain Partially Cloudy 45° 89% -
75 1:26.012 33 Rain Partially Cloudy 44° 89% -
76 1:25.776 33 Rain Partially Cloudy 44° 88% -
77 1:25.809 33 Rain Partially Cloudy 44° 88% -


Not much useful information here as I totally bollocksed up my tyre selection Smile
Back to top Go down
View user profile
 
Race 11 Hungaroring
Back to top 
Page 1 of 1
 Similar topics
-
» RuPaul's Drag Race
» Race is Artificial
» "Pride" in your culture/race/whatever
» The Amazing Race 15 - Meet The Cast
» Bill O'Reilly on the black / race issue.

Permissions in this forum:You cannot reply to topics in this forum
Xtreme Racing :: Season 24-
Jump to: